Time,TemperatureF,DewpointF,PressureIn,WindDirection,WindDirectionDegrees,WindSpeedMPH,WindSpeedGustMPH,Humidity,HourlyPrecipIn,Conditions,Clouds,dailyrainin,SoftwareType,DateUTC
2013-01-13 00:01:00,27.0,16.0,30.36,NE,40,0.0,0.0,64,0.00,,,0.00,,2013-01-13 08:01:00,
2013-01-13 00:11:00,27.0,16.0,30.36,NE,40,0.0,0.0,64,0.00,,,0.00,,2013-01-13 08:11:00,
2013-01-13 00:22:00,26.0,16.0,30.36,NNE,20,0.0,1.0,65,0.00,,,0.00,,2013-01-13 08:22:00,
2013-01-13 00:32:00,26.0,16.0,30.35,NNE,20,0.0,0.0,64,0.00,,,0.00,,2013-01-13 08:32:00,
2013-01-13 00:52:00,26.0,15.0,30.35,NNE,20,0.0,0.0,62,0.00,,,0.00,,2013-01-13 08:52:00,
2013-01-13 01:02:00,26.0,16.0,30.35,NNW,340,0.0,0.0,65,0.00,,,0.00,,2013-01-13 09:02:00,
2013-01-13 01:11:00,26.0,16.0,30.36,NNW,340,0.0,0.0,64,0.00,,,0.00,,2013-01-13 09:11:00,
2013-01-13 01:22:00,26.0,16.0,30.36,NNW,340,0.0,0.0,64,0.00,,,0.00,,2013-01-13 09:22:00,
2013-01-13 01:32:00,25.0,14.0,30.36,NE,40,0.0,0.0,63,0.00,,,0.00,,2013-01-13 09:32:00,
2013-01-13 01:52:00,25.0,14.0,30.37,NE,40,0.0,0.0,63,0.00,,,0.00,,2013-01-13 09:52:00,
2013-01-13 02:02:00,25.0,15.0,30.36,North,360,0.0,0.0,64,0.00,,,0.00,,2013-01-13 10:02:00,
2013-01-13 02:22:00,25.0,15.0,30.37,North,360,0.0,0.0,64,0.00,,,0.00,,2013-01-13 10:22:00,
2013-01-13 02:32:00,25.0,15.0,30.37,NNE,20,0.0,0.0,65,0.00,,,0.00,,2013-01-13 10:32:00,
2013-01-13 02:52:00,25.0,15.0,30.37,NE,40,0.0,0.0,64,0.00,,,0.00,,2013-01-13 10:52:00,
2013-01-13 03:02:00,25.0,14.0,30.37,NE,40,0.0,0.0,63,0.00,,,0.00,,2013-01-13 11:02:00,
2013-01-13 03:11:00,25.0,14.0,30.37,NE,40,0.0,0.0,63,0.00,,,0.00,,2013-01-13 11:11:00,
2013-01-13 03:22:00,25.0,14.0,30.37,NE,40,0.0,0.0,63,0.00,,,0.00,,2013-01-13 11:22:00,
2013-01-13 03:32:00,24.0,13.0,30.37,NE,40,0.0,0.0,62,0.00,,,0.00,,2013-01-13 11:32:00,
2013-01-13 03:52:00,24.0,13.0,30.37,NNE,20,0.0,0.0,61,0.00,,,0.00,,2013-01-13 11:52:00,
2013-01-13 04:02:00,24.0,13.0,30.37,North,360,0.0,0.0,63,0.00,,,0.00,,2013-01-13 12:02:00,
2013-01-13 04:22:00,24.0,13.0,30.36,NE,40,0.0,0.0,63,0.00,,,0.00,,2013-01-13 12:22:00,
2013-01-13 04:32:00,24.0,13.0,30.37,North,360,0.0,0.0,63,0.00,,,0.00,,2013-01-13 12:32:00,
2013-01-13 04:52:00,24.0,14.0,30.36,North,360,0.0,0.0,64,0.00,,,0.00,,2013-01-13 12:52:00,
2013-01-13 05:02:00,24.0,13.0,30.37,North,360,0.0,0.0,62,0.00,,,0.00,,2013-01-13 13:02:00,
2013-01-13 05:22:00,24.0,13.0,30.37,North,360,0.0,0.0,63,0.00,,,0.00,,2013-01-13 13:22:00,
2013-01-13 05:32:00,24.0,14.0,30.36,North,360,0.0,0.0,64,0.00,,,0.00,,2013-01-13 13:32:00,
2013-01-13 05:42:00,24.0,14.0,30.36,North,360,0.0,0.0,64,0.00,,,0.00,,2013-01-13 13:42:00,
2013-01-13 05:52:00,24.0,13.0,30.36,North,360,0.0,0.0,63,0.00,,,0.00,,2013-01-13 13:52:00,
2013-01-13 06:02:00,24.0,14.0,30.37,North,360,0.0,0.0,65,0.00,,,0.00,,2013-01-13 14:02:00,
2013-01-13 06:12:00,24.0,14.0,30.37,North,360,0.0,0.0,65,0.00,,,0.00,,2013-01-13 14:12:00,
2013-01-13 06:22:00,23.0,12.0,30.36,North,360,0.0,0.0,63,0.00,,,0.00,,2013-01-13 14:22:00,
2013-01-13 06:32:00,23.0,13.0,30.37,NNW,339,0.0,2.0,64,0.00,,,0.00,,2013-01-13 14:32:00,
2013-01-13 06:52:00,24.0,14.0,30.38,NNW,340,0.0,2.0,64,0.00,,,0.00,,2013-01-13 14:52:00,
2013-01-13 07:02:00,23.0,13.0,30.39,NNW,340,0.0,0.0,66,0.00,,,0.00,,2013-01-13 15:02:00,
2013-01-13 07:22:00,24.0,14.0,30.38,North,360,0.0,0.0,66,0.00,,,0.00,,2013-01-13 15:22:00,
2013-01-13 07:32:00,23.0,12.0,30.40,NE,40,0.0,0.0,63,0.00,,,0.00,,2013-01-13 15:32:00,
2013-01-13 07:52:00,23.0,13.0,30.40,NE,40,0.0,0.0,65,0.00,,,0.00,,2013-01-13 15:52:00,
2013-01-13 08:02:00,23.0,13.0,30.40,NE,40,0.0,0.0,64,0.00,,,0.00,,2013-01-13 16:02:00,
2013-01-13 08:22:00,23.0,13.0,30.40,NE,40,0.0,0.0,64,0.00,,,0.00,,2013-01-13 16:22:00,
2013-01-13 08:33:00,23.0,12.0,30.41,North,360,0.0,0.0,62,0.00,,,0.00,,2013-01-13 16:33:00,
2013-01-13 08:52:00,23.0,12.0,30.41,North,360,0.0,0.0,63,0.00,,,0.00,,2013-01-13 16:52:00,
2013-01-13 09:02:00,24.0,14.0,30.41,North,360,0.0,0.0,64,0.00,,,0.00,,2013-01-13 17:02:00,
2013-01-13 09:12:00,24.0,14.0,30.41,North,360,0.0,0.0,64,0.00,,,0.00,,2013-01-13 17:12:00,
2013-01-13 09:22:00,25.0,15.0,30.41,NNE,20,0.0,0.0,65,0.00,,,0.00,,2013-01-13 17:22:00,
2013-01-13 09:32:00,26.0,16.0,30.41,NE,40,0.0,0.0,66,0.00,,,0.00,,2013-01-13 17:32:00,
2013-01-13 09:42:00,26.0,16.0,30.41,NE,40,0.0,0.0,66,0.00,,,0.00,,2013-01-13 17:42:00,
2013-01-13 09:52:00,27.0,17.0,30.40,NE,40,0.0,0.0,66,0.00,,,0.00,,2013-01-13 17:52:00,
2013-01-13 10:02:00,29.0,19.0,30.40,NNE,20,0.0,0.0,66,0.00,,,0.00,,2013-01-13 18:02:00,
2013-01-13 10:11:00,29.0,19.0,30.40,NNE,20,0.0,0.0,66,0.00,,,0.00,,2013-01-13 18:11:00,
2013-01-13 10:22:00,30.0,20.0,30.40,NNE,25,1.0,4.0,66,0.00,,,0.00,,2013-01-13 18:22:00,
2013-01-13 10:32:00,31.0,21.0,30.41,NE,46,2.0,4.0,66,0.00,,,0.00,,2013-01-13 18:32:00,
2013-01-13 10:42:00,31.0,21.0,30.41,NE,46,2.0,4.0,66,0.00,,,0.00,,2013-01-13 18:42:00,
2013-01-13 10:52:00,32.0,22.0,30.41,South,175,0.0,4.0,65,0.00,,,0.00,,2013-01-13 18:52:00,
2013-01-13 11:02:00,32.0,20.0,30.42,North,360,0.0,1.0,61,0.00,,,0.00,,2013-01-13 19:02:00,
2013-01-13 11:11:00,32.0,20.0,30.42,North,360,0.0,1.0,61,0.00,,,0.00,,2013-01-13 19:11:00,
2013-01-13 11:22:00,33.0,21.0,30.42,NNW,340,0.0,0.0,62,0.00,,,0.00,,2013-01-13 19:22:00,
2013-01-13 11:32:00,33.0,22.0,30.41,NE,44,3.0,6.0,63,0.00,,,0.00,,2013-01-13 19:32:00,
2013-01-13 11:42:00,33.0,22.0,30.41,NE,44,3.0,6.0,63,0.00,,,0.00,,2013-01-13 19:42:00,
2013-01-13 11:52:00,34.0,22.0,30.41,SSE,166,1.0,7.0,62,0.00,,,0.00,,2013-01-13 19:52:00,
2013-01-13 12:02:00,34.0,23.0,30.40,NE,41,3.0,8.0,63,0.00,,,0.00,,2013-01-13 20:02:00,
2013-01-13 12:11:00,34.0,23.0,30.40,NE,41,3.0,8.0,63,0.00,,,0.00,,2013-01-13 20:11:00,
2013-01-13 12:22:00,35.0,23.0,30.40,South,169,2.0,7.0,62,0.00,,,0.00,,2013-01-13 20:22:00,
2013-01-13 12:32:00,35.0,22.0,30.39,ENE,76,3.0,7.0,59,0.00,,,0.00,,2013-01-13 20:32:00,
2013-01-13 12:42:00,35.0,22.0,30.39,ENE,76,3.0,7.0,59,0.00,,,0.00,,2013-01-13 20:42:00,
2013-01-13 12:52:00,35.0,22.0,30.38,East,80,3.0,7.0,58,0.00,,,0.00,,2013-01-13 20:52:00,
2013-01-13 13:02:00,35.0,22.0,30.39,ENE,64,4.0,7.0,58,0.00,,,0.00,,2013-01-13 21:02:00,
2013-01-13 13:12:00,35.0,22.0,30.39,ENE,64,4.0,7.0,58,0.00,,,0.00,,2013-01-13 21:12:00,
2013-01-13 13:22:00,36.0,23.0,30.39,ENE,63,2.0,7.0,58,0.00,,,0.00,,2013-01-13 21:22:00,
2013-01-13 13:32:00,37.0,22.0,30.39,NE,37,1.0,7.0,55,0.00,,,0.00,,2013-01-13 21:32:00,
2013-01-13 13:42:00,37.0,22.0,30.39,NE,37,1.0,7.0,55,0.00,,,0.00,,2013-01-13 21:42:00,
2013-01-13 13:52:00,37.0,22.0,30.38,NNE,28,2.0,5.0,55,0.00,,,0.00,,2013-01-13 21:52:00,
2013-01-13 14:02:00,36.0,19.0,30.37,NNE,29,2.0,5.0,50,0.00,,,0.00,,2013-01-13 22:02:00,
2013-01-13 14:11:00,36.0,19.0,30.37,NNE,29,2.0,5.0,50,0.00,,,0.00,,2013-01-13 22:11:00,
2013-01-13 14:22:00,36.0,21.0,30.38,NE,38,1.0,5.0,53,0.00,,,0.00,,2013-01-13 22:22:00,
2013-01-13 14:32:00,36.0,20.0,30.37,North,7,2.0,7.0,51,0.00,,,0.00,,2013-01-13 22:32:00,
2013-01-13 14:42:00,36.0,20.0,30.37,North,7,2.0,7.0,51,0.00,,,0.00,,2013-01-13 22:42:00,
2013-01-13 14:52:00,37.0,21.0,30.38,ESE,109,0.0,5.0,53,0.00,,,0.00,,2013-01-13 22:52:00,
2013-01-13 15:02:00,37.0,21.0,30.38,NW,326,2.0,6.0,52,0.00,,,0.00,,2013-01-13 23:02:00,
2013-01-13 15:11:00,37.0,21.0,30.38,NW,326,2.0,6.0,52,0.00,,,0.00,,2013-01-13 23:11:00,
2013-01-13 15:22:00,37.0,21.0,30.39,NNE,18,3.0,6.0,52,0.00,,,0.00,,2013-01-13 23:22:00,
2013-01-13 15:32:00,37.0,20.0,30.39,NNW,347,2.0,5.0,50,0.00,,,0.00,,2013-01-13 23:32:00,
2013-01-13 15:42:00,37.0,20.0,30.39,NNW,347,2.0,5.0,50,0.00,,,0.00,,2013-01-13 23:42:00,
2013-01-13 15:52:00,37.0,21.0,30.39,WNW,303,1.0,4.0,53,0.00,,,0.00,,2013-01-13 23:52:00,
2013-01-13 16:02:00,36.0,21.0,30.39,NW,326,2.0,5.0,54,0.00,,,0.00,,2013-01-14 00:02:00,
2013-01-13 16:12:00,36.0,21.0,30.39,NW,326,2.0,5.0,54,0.00,,,0.00,,2013-01-14 00:12:00,
2013-01-13 16:22:00,36.0,21.0,30.38,WSW,258,2.0,6.0,54,0.00,,,0.00,,2013-01-14 00:22:00,
2013-01-13 16:32:00,35.0,20.0,30.38,SSW,200,0.0,3.0,55,0.00,,,0.00,,2013-01-14 00:32:00,
2013-01-13 16:42:00,35.0,20.0,30.38,SSW,200,0.0,3.0,55,0.00,,,0.00,,2013-01-14 00:42:00,
2013-01-13 16:52:00,34.0,20.0,30.38,NW,325,1.0,5.0,55,0.00,,,0.00,,2013-01-14 00:52:00,
2013-01-13 17:02:00,33.0,19.0,30.38,NNW,345,2.0,4.0,56,0.00,,,0.00,,2013-01-14 01:02:00,
2013-01-13 17:12:00,33.0,19.0,30.38,NNW,345,2.0,4.0,56,0.00,,,0.00,,2013-01-14 01:12:00,
2013-01-13 17:22:00,33.0,19.0,30.39,North,351,2.0,3.0,55,0.00,,,0.00,,2013-01-14 01:22:00,
2013-01-13 17:32:00,32.0,18.0,30.39,NNW,345,1.0,4.0,56,0.00,,,0.00,,2013-01-14 01:32:00,
2013-01-13 18:02:00,31.0,18.0,30.39,North,360,0.0,6.0,58,0.00,,,0.00,,2013-01-14 02:02:00,
2013-01-13 18:11:00,31.0,18.0,30.39,North,360,0.0,4.0,58,0.00,,,0.00,,2013-01-14 02:11:00,
2013-01-13 18:22:00,31.0,18.0,30.39,North,360,0.0,4.0,58,0.00,,,0.00,,2013-01-14 02:22:00,
2013-01-13 18:32:00,30.0,17.0,30.40,NNW,340,0.0,0.0,58,0.00,,,0.00,,2013-01-14 02:32:00,
2013-01-13 18:52:00,30.0,18.0,30.40,North,356,1.0,2.0,61,0.00,,,0.00,,2013-01-14 02:52:00,
2013-01-13 19:02:00,30.0,18.0,30.41,North,358,1.0,3.0,60,0.00,,,0.00,,2013-01-14 03:02:00,
2013-01-13 19:22:00,30.0,18.0,30.41,North,349,1.0,2.0,60,0.00,,,0.00,,2013-01-14 03:22:00,
2013-01-13 19:32:00,29.0,17.0,30.40,NNW,339,0.0,1.0,61,0.00,,,0.00,,2013-01-14 03:32:00,
2013-01-13 19:52:00,29.0,17.0,30.39,NNW,339,0.0,1.0,61,0.00,,,0.00,,2013-01-14 03:52:00,
2013-01-13 20:02:00,28.0,16.0,30.39,North,359,1.0,2.0,61,0.00,,,0.00,,2013-01-14 04:02:00,
2013-01-13 20:32:00,28.0,17.0,30.40,NNW,345,1.0,2.0,63,0.00,,,0.00,,2013-01-14 04:32:00,
2013-01-13 20:52:00,28.0,17.0,30.41,NNW,340,1.0,2.0,62,0.00,,,0.00,,2013-01-14 04:52:00,
2013-01-13 21:03:00,28.0,17.0,30.42,North,352,0.0,2.0,62,0.00,,,0.00,,2013-01-14 05:03:00,
2013-01-13 21:22:00,28.0,17.0,30.41,NNW,347,1.0,2.0,63,0.00,,,0.00,,2013-01-14 05:22:00,
2013-01-13 21:32:00,28.0,17.0,30.42,North,360,0.0,1.0,63,0.00,,,0.00,,2013-01-14 05:32:00,
2013-01-13 21:52:00,28.0,17.0,30.41,North,359,1.0,4.0,63,0.00,,,0.00,,2013-01-14 05:52:00,
2013-01-13 22:02:00,29.0,19.0,30.41,NNW,348,1.0,6.0,66,0.00,,,0.00,,2013-01-14 06:02:00,
2013-01-13 22:11:00,29.0,19.0,30.41,NNW,348,1.0,6.0,66,0.00,,,0.00,,2013-01-14 06:11:00,
2013-01-13 22:22:00,30.0,20.0,30.41,NNW,348,2.0,5.0,66,0.00,,,0.00,,2013-01-14 06:22:00,
2013-01-13 22:32:00,30.0,19.0,30.42,NNW,347,2.0,4.0,64,0.00,,,0.00,,2013-01-14 06:32:00,
2013-01-13 22:42:00,30.0,19.0,30.42,NNW,347,2.0,4.0,64,0.00,,,0.00,,2013-01-14 06:42:00,
2013-01-13 22:52:00,30.0,20.0,30.42,NNW,334,3.0,7.0,66,0.00,,,0.00,,2013-01-14 06:52:00,
2013-01-13 23:01:00,31.0,21.0,30.42,NNW,329,4.0,8.0,66,0.00,,,0.00,,2013-01-14 07:01:00,
2013-01-13 23:11:00,31.0,21.0,30.42,NNW,329,4.0,8.0,66,0.00,,,0.00,,2013-01-14 07:11:00,
2013-01-13 23:22:00,31.0,21.0,30.42,NNW,340,2.0,7.0,65,0.00,,,0.00,,2013-01-14 07:22:00,
2013-01-13 23:32:00,31.0,21.0,30.43,NNW,339,3.0,10.0,65,0.00,,,0.00,,2013-01-14 07:32:00,
2013-01-13 23:42:00,31.0,21.0,30.43,NNW,339,3.0,10.0,65,0.00,,,0.00,,2013-01-14 07:42:00,
2013-01-13 23:52:00,31.0,21.0,30.43,NW,320,3.0,6.0,65,0.00,,,0.00,,2013-01-14 07:52:00,